Location: Kernascl�den
(48.0062°N, 3.3198°W)
Time: 23:40:07
(UTC+00:00)

Cosmos 2098 Rocket - Pass Details

Date: 15 May 2021
Orbit: 365 x 1178 km, 82.9° (Epoch: 21 June)

Event Time Altitude Azimuth Distance (km) Brightness Sun altitude
Rises 03:48:37 0° 122° (ESE) 3,870 7.4 -7.2°
Reaches altitude 10° 03:52:45 10° 98° (E) 3,023 7.3 -6.6°
Maximum altitude 03:55:54 13° 72° (ENE) 2,820 7.7 -6.2°
Drops below altitude 10° 03:59:06 10° 46° (NE) 3,108 8.4 -5.8°
Sets 04:03:27 0° 23° (NNE) 4,069 8.4 -5.2°
